Regional Weather Roundup
Issued by NWS

Home | Current Version | Previous Version | Text Only | Print | Product List | Glossary On
Versions: 1 2 3 4 5 6 7 8 9 10 11 12 13 14 15 16 17 18 19 20 21 22 23 24 25 26 27 28 29 30 31 32 33 34 35 36 37 38 39 40 41 42 43 44 45 46 47 48 49 50
983
ASUS43 KDTX 281001
RWRMI
MICHIGAN HOURLY REGIONAL WEATHER ROUNDUP
NATIONAL WEATHER SERVICE DETROIT/PONTIAC MI
600 AM EDT WED SEP 28 2016

NOTE: "FAIR" INDICATES FEW OR NO CLOUDS BELOW 12,000 FEET WITH NO
SIGNIFICANT WEATHER AND/OR OBSTRUCTION TO VISIBILITY.

MIZ047>049-052>055-059>063-066>070-074>076-081>083-281100-
SOUTHEAST LOWER MICHIGAN

CITY           SKY/WX    TMP DP  RH WIND       PRES   REMARKS
ADRIAN         PTCLDY    50  47  89 NE5       29.82R
ALMA           CLOUDY    49  49 100 CALM      29.85R
ANN ARBOR      PTCLDY    51  46  83 N5        29.81S
CARO           CLOUDY    49  47  94 CALM      29.86R
DETROIT CITY   MOCLDY    56  50  80 CALM      29.83S
DETROIT        CLOUDY    56  48  74 N5        29.83R
FLINT          PTCLDY    49  46  90 E5        29.84F
GROSSE ILE     CLOUDY    57  48  73 E5        29.81R
HILLSDALE      PTCLDY    48  45  87 E5        29.79S
HOWELL         MOCLDY    49  46  89 NE6       29.83S

CITY           SKY/WX    TMP DP  RH WIND       PRES   REMARKS
JACKSON        PTCLDY    49  48  97 E6        29.81S
LAMBERTVILLE   CLOUDY    50  47  88 SE3       29.81S
LANSING        PTCLDY    50  45  83 NE5       29.83R
LAPEER         FAIR      46  46  97 CALM      29.85S
MASON          CLOUDY    50  46  87 SE5       29.82S
MONROE         CLOUDY    51  47  88 NE3       29.80S
MT. CLEMENS    CLOUDY    53  48  81 NE6       29.81S
PONTIAC        CLOUDY    53  46  77 NE5       29.83S
PORT HURON     CLOUDY    50  48  93 CALM      29.85R
TRI CITIES     CLOUDY    50  49  96 CALM      29.86R
MIDLAND        FAIR      49  49  98 CALM      29.85R
TROY           PTCLDY    56  45  66 NE6       29.85R
SAGINAW HB     CLOUDY    48  46  93 E5        29.84S
$$
MIZ043>046-050>051-056>058-064>065-071>073-077>080-281100-
SOUTHWEST LOWER MICHIGAN

CITY           SKY/WX    TMP DP  RH WIND       PRES   REMARKS
BATTLE CREEK   CLOUDY    52  47  83 N6        29.81R
BENTON HARBOR  CLOUDY    54  48  80 E8        29.78S
BIG RAPIDS     RAIN      51  51  98 S6        29.82R
COLDWATER      PTCLDY    51  46  84 NE7       29.78F
FREMONT        CLOUDY    51  50  98 SE6       29.81R
HOLLAND        LGT RAIN  53  51  93 CALM      29.83R
GRAND RAPIDS   LGT RAIN  52  49  89 N5        29.84R
IONIA          CLOUDY    49  47  93 N3        29.83S
KALAMAZOO      CLOUDY    53  47  79 N9        29.81R
LUDINGTON      DRIZZLE   49  49 100 E3        29.79R
MARSHALL       CLOUDY    52  47  83 NE6       29.79S
MOUNT PLEASANT MOCLDY    50  49  95 CALM      29.84R
MUSKEGON       LGT RAIN  53  51  93 SE7       29.82R
SOUTH HAVEN    CLOUDY    54  52  94 N6        29.80R
$$
MIZ016>042-281100-
NORTHERN LOWER MICHIGAN

CITY           SKY/WX    TMP DP  RH WIND       PRES   REMARKS
ALPENA         CLOUDY    51  49  92 NE3       29.89R
BEAVER ISLAND  MOCLDY    50  50  99 E5        29.86R
BELLAIRE       CLOUDY    49  48  96 CALM      29.85R
CADILLAC       MOCLDY    47  46  95 SE6       29.81S
CHARLEVOIX     PTCLDY    49  49  98 SE5       29.88R
FRANKFORT      LGT RAIN  51  49  92 E3        29.81R
GAYLORD        CLOUDY    49  46  90 CALM      29.86R
GRAYLING       RAIN      49  49  98 E6        29.86R
HARBOR SPRINGS CLOUDY    48  47  97 NE3       29.87R
HOUGHTON LAKE  CLOUDY    49  48  97 SE5       29.86R
MANISTEE       LGT RAIN  50  49  96 E7        29.80R
OSCODA         DRIZZLE   51  49  95 CALM      29.86S
PELLSTON       CLOUDY    45  43  93 CALM      29.88R
ROGERS CITY    CLOUDY    51  49  93 CALM      29.89R
TRAVERSE CITY  CLOUDY    51  49  92 CALM      29.82R
$$
MIZ007>008-015-281100-
EASTERN UPPER MICHIGAN

CITY           SKY/WX    TMP DP  RH WIND       PRES   REMARKS
KINROSS        CLOUDY    52  51  97 NE7       29.90R
MACKINAC ISLAN MOCLDY    51  51  99 SE6       29.88R
NEWBERRY       FOG       47  46  97 NE3       29.89R VSB 1/2
S. S. MARIE    LGT RAIN  54  52  93 E3        29.90R FOG
MUNISING         N/A     51  49  92 E3        29.88R
$$
MIZ004>006-011>014-085-281100-
CENTRAL UPPER MICHIGAN

CITY           SKY/WX    TMP DP  RH WIND       PRES   REMARKS
MANISTIQUE     LGT RAIN  52  49  92 E7        29.85R
ESCANABA       CLOUDY    49  48  97 N5        29.84R
MENOMINEE      CLEAR     46  45  96 N5        29.83R
SAWYER-GWINN   CLOUDY    48  47  97 E6        29.88R FOG
$$
MIZ001>003-009>011-084-281100-
WESTERN UPPER MICHIGAN

CITY           SKY/WX    TMP DP  RH WIND       PRES   REMARKS
IRON MOUNTAIN  CLOUDY    49  46  90 VRB3      29.84R
HOUGHTON       MOCLDY    52  49  89 NE9       29.92R
COPPER HARBOR    N/A     57  51  80 E8        29.92R
IRONWOOD       LGT RAIN  53  52  96 N14G24    29.93R FOG
$$

ABBREVIATIONS USED IN REMARKS
   TC - TEMPERATURE IN CELSIUS
  WCI - WIND CHILL INDEX
   HX - HEAT INDEX
  VSB - VISIBILITY





USA.gov is the U.S. government's official web portal to all federal, state and local government web resources and services.